Total_Precipitation_Accumulation
0.27 0.58 1.06 1.73 2.29 2.58 2.23 1.53 1.14 0.99 0.94 0.90 0.92 0.97 1.04 1.18 1.80 3.02 3.05 2.65 2.32 2.05 2.02 2.28 2.54 2.43 2.54 2.55 2.46 2.50 2.45 2.50 2.64 2.71 2.75 2.72 2.58 2.54 2.46 2.36 2.54 2.64 2.53 2.62 2.49 2.23 2.10 1.95 1.84
0.44 0.90 1.37 1.91 2.57 2.60 2.10 1.35 1.04 0.95 0.85 0.73 0.73 0.92 1.06 1.06 1.23 1.95 2.62 2.56 1.93 1.71 1.76 1.83 2.25 2.25 2.11 2.03 2.10 2.30 2.25 2.22 2.33 2.54 2.76 2.85 2.83 2.71 2.63 2.53 2.68 2.69 2.51 2.60 2.41 2.14 1.88 1.73 1.74
0.64 1.12 1.64 2.03 1.94 1.89 1.65 1.11 0.87 0.68 0.76 0.79 0.76 0.80 1.14 1.35 1.34 1.78 2.24 2.08 1.69 1.46 1.57 1.83 1.99 1.97 1.84 1.78 1.87 2.09 2.00 2.03 2.12 2.25 2.55 2.75 2.83 2.96 2.91 2.70 2.66 2.50 2.43 2.44 2.29 2.02 1.76 1.60 1.66
0.88 1.24 1.46 1.57 1.21 1.07 0.97 0.80 0.63 0.56 0.63 0.69 0.80 1.03 1.31 1.45 1.47 1.68 1.71 1.51 1.27 1.29 1.40 1.63 1.80 1.72 1.61 1.61 1.76 1.92 1.91 1.96 2.00 2.03 2.37 2.55 2.54 2.61 2.67 2.63 2.46 2.31 2.26 2.24 2.32 1.98 1.75 1.67 1.75
0.99 1.33 1.56 1.20 0.91 0.90 0.79 0.64 0.52 0.47 0.59 0.73 0.78 1.20 1.75 1.81 1.48 1.39 1.32 1.29 1.18 1.28 1.43 1.52 1.68 1.62 1.59 1.64 1.66 1.76 1.92 1.91 1.88 1.99 2.30 2.44 2.44 2.54 2.51 2.38 2.14 2.00 2.10 2.12 2.17 1.99 1.76 1.66 1.75
0.98 1.20 1.18 0.93 0.80 0.74 0.65 0.53 0.50 0.48 0.61 0.83 0.80 1.18 2.14 2.13 1.59 1.35 1.19 1.17 1.09 1.11 1.30 1.41 1.56 1.60 1.59 1.58 1.57 1.64 1.65 1.68 1.78 1.96 2.18 2.18 2.19 2.30 2.27 2.20 2.10 1.86 1.97 1.96 1.86 1.96 1.78 1.71 1.70
1.02 0.94 0.77 0.72 0.67 0.68 0.61 0.51 0.48 0.45 0.64 0.97 0.88 1.26 2.26 2.44 1.71 1.29 1.19 1.15 1.11 1.04 1.20 1.42 1.54 1.61 1.60 1.58 1.52 1.62 1.68 1.61 1.65 1.80 1.99 2.10 2.07 2.01 1.95 2.03 2.05 1.85 1.78 1.70 1.66 1.80 1.86 1.75 1.66
0.62 0.69 0.58 0.53 0.52 0.53 0.46 0.39 0.39 0.55 0.72 0.86 0.80 1.21 2.17 2.19 1.58 1.40 1.40 1.38 1.47 1.44 1.44 1.40 1.34 1.44 1.50 1.45 1.57 1.70 1.75 1.66 1.65 1.79 1.96 2.10 2.01 1.92 1.85 1.73 1.88 1.86 1.73 1.60 1.54 1.67 1.78 1.61 1.62
0.42 0.63 0.57 0.45 0.38 0.38 0.35 0.34 0.37 0.53 0.71 0.93 1.02 1.16 1.53 1.40 1.39 1.56 1.73 1.88 1.94 2.01 2.03 1.76 1.52 1.45 1.54 1.41 1.44 1.83 2.00 1.90 1.98 2.17 2.23 2.38 2.38 2.16 2.14 2.02 2.16 2.04 1.97 1.89 1.83 1.80 1.94 1.74 1.58
0.34 0.46 0.40 0.24 0.22 0.28 0.27 0.30 0.41 0.64 0.91 1.24 1.27 1.28 1.50 1.48 1.38 1.53 1.72 1.96 2.17 2.45 2.48 2.13 1.84 1.58 1.43 1.24 1.53 1.95 1.95 2.11 2.29 2.47 2.37 2.64 2.85 2.69 2.15 2.42 2.79 2.72 2.67 2.49 2.42 2.30 2.07 1.98 1.83
0.29 0.29 0.23 0.16 0.16 0.19 0.23 0.30 0.41 0.73 1.19 1.65 1.90 1.92 1.79 1.65 1.68 1.72 1.82 2.19 2.58 2.78 2.65 2.24 1.99 1.80 1.53 1.60 1.59 1.85 2.19 2.50 2.42 2.28 2.31 2.69 2.61 2.41 2.40 2.62 2.81 2.96 2.81 2.66 2.67 2.73 2.44 2.59 2.98
0.18 0.15 0.13 0.13 0.13 0.16 0.22 0.30 0.44 0.71 1.17 1.42 1.64 1.88 2.01 1.93 2.11 2.15 2.15 2.57 2.94 2.91 2.65 2.31 2.05 1.88 1.78 1.74 1.73 1.87 2.01 2.24 2.33 2.45 2.41 2.64 3.07 3.03 2.96 3.09 3.06 3.13 3.23 3.58 3.37 3.44 3.18 3.10 3.10
0.12 0.12 0.11 0.14 0.16 0.17 0.19 0.32 0.48 0.77 0.89 1.03 1.16 1.33 1.65 2.08 2.51 2.72 2.82 3.19 3.20 3.07 2.87 2.58 2.22 2.20 2.15 2.30 2.41 2.09 2.14 2.24 2.50 2.82 2.80 2.84 3.24 3.23 3.19 3.22 3.34 3.13 3.17 3.43 3.74 3.56 3.60 3.67 3.43
0.12 0.11 0.12 0.17 0.19 0.19 0.25 0.40 0.48 0.80 0.82 0.88 1.07 1.30 1.86 2.49 2.74 3.11 3.51 3.80 3.73 3.56 3.52 3.22 2.81 2.78 2.79 2.71 2.75 2.69 2.41 2.60 2.70 2.89 2.85 2.96 3.23 3.40 3.35 3.16 3.29 3.15 3.12 3.29 3.55 3.58 4.03 3.99 3.87
0.11 0.14 0.19 0.20 0.21 0.24 0.32 0.61 0.66 0.79 0.84 0.95 1.29 1.48 1.95 2.33 2.66 2.83 3.30 3.64 3.67 3.69 3.86 3.79 3.58 3.60 3.58 3.36 3.14 2.93 2.81 2.78 3.06 3.19 3.08 3.13 3.17 3.39 3.37 3.31 3.19 3.18 3.25 3.49 3.58 3.65 4.00 3.94 3.86
0.17 0.26 0.37 0.28 0.24 0.27 0.45 0.98 0.83 0.78 0.97 1.25 1.48 1.61 1.86 2.08 2.49 2.63 3.00 3.52 3.81 3.85 4.09 4.29 4.17 4.19 4.09 3.99 3.76 3.41 3.27 3.28 3.25 3.18 3.22 3.11 3.20 3.31 3.52 3.38 3.14 3.24 3.21 3.44 3.84 3.97 4.18 4.28 4.23
0.31 0.39 0.47 0.43 0.32 0.30 0.52 1.03 1.00 0.99 1.11 1.24 1.39 1.64 1.79 1.81 2.19 2.66 2.99 3.57 4.01 4.17 4.57 4.97 5.03 4.93 4.63 4.32 4.16 4.05 3.90 3.70 3.44 3.38 3.32 3.18 3.12 3.12 3.41 3.38 3.33 3.35 3.57 3.61 3.41 4.03 4.37 4.50 4.41
0.43 0.38 0.42 0.45 0.38 0.39 0.56 0.77 0.89 1.04 1.19 1.31 1.33 1.47 1.51 1.64 2.11 2.67 3.05 3.42 4.10 4.65 5.28 5.40 5.40 5.65 5.42 5.09 4.91 4.73 4.33 3.98 3.67 3.53 3.40 3.12 3.06 3.01 3.37 3.19 3.20 3.33 3.72 3.88 3.97 4.43 4.43 4.28 4.40
0.29 0.39 0.48 0.50 0.42 0.56 0.73 0.90 0.99 1.09 1.16 1.34 1.43 1.35 1.40 1.69 2.11 2.57 3.01 3.45 3.88 4.47 5.10 5.78 5.97 5.82 5.62 5.36 4.92 4.58 4.17 3.94 3.65 3.34 3.13 3.07 3.03 3.17 3.67 3.32 3.63 3.55 3.66 3.75 3.90 4.21 4.21 3.96 4.21
0.24 0.37 0.50 0.55 0.47 0.57 0.81 1.06 1.18 1.14 1.12 1.19 1.36 1.48 1.50 1.77 2.11 2.55 3.06 3.35 3.54 3.87 4.34 4.84 5.19 4.87 4.49 4.32 4.28 4.16 4.07 3.67 3.52 3.44 3.52 3.22 3.22 3.26 3.34 3.61 3.52 3.58 3.73 3.53 3.61 3.99 3.87 3.43 3.81
0.25 0.33 0.40 0.42 0.47 0.61 0.92 1.35 1.38 1.13 1.03 1.07 1.18 1.46 1.66 1.71 2.01 2.33 2.79 3.03 3.16 3.32 3.47 3.66 3.90 3.97 3.98 4.05 4.14 4.29 4.46 4.14 4.00 3.94 3.86 3.38 3.27 3.26 3.37 3.34 3.30 3.47 3.42 3.43 3.42 3.60 3.74 3.61 3.58
0.30 0.23 0.25 0.29 0.53 0.90 1.01 1.64 1.59 1.26 1.19 1.15 1.17 1.30 1.40 1.56 1.68 1.81 2.13 2.56 2.57 2.67 2.91 3.41 3.64 3.74 3.94 4.22 4.25 4.30 4.28 4.22 4.20 4.28 4.19 4.00 3.70 3.49 3.29 3.13 3.09 3.12 3.03 3.18 2.95 3.23 3.47 3.69 3.42
0.21 0.18 0.21 0.30 0.52 0.77 0.80 1.19 1.37 1.35 1.31 1.16 1.09 1.19 1.26 1.33 1.44 1.56 1.77 2.19 2.26 2.24 2.56 3.16 3.72 3.94 4.11 4.33 4.43 4.70 4.53 4.38 4.24 4.29 4.36 4.13 3.82 3.49 3.13 3.13 3.12 3.07 2.95 2.86 2.82 3.08 3.05 3.18 3.24
0.16 0.23 0.33 0.45 0.73 1.18 0.88 0.95 1.33 1.30 1.14 1.04 0.93 0.96 1.05 1.02 1.08 1.29 1.62 2.06 2.25 2.35 2.66 3.12 3.61 3.94 4.10 4.19 4.23 4.35 4.38 4.40 4.16 4.02 3.72 3.32 3.17 3.06 2.82 2.84 2.90 2.80 2.80 2.84 2.80 2.84 2.85 2.92 3.02
0.18 0.35 0.89 1.30 1.56 1.56 0.86 0.87 1.18 1.00 0.92 0.87 0.93 0.93 0.84 0.85 0.93 0.99 1.16 1.29 1.44 1.63 1.92 2.27 2.74 3.09 3.28 3.42 3.49 3.48 3.71 3.76 3.48 3.17 2.95 2.67 2.44 2.32 2.30 2.45 2.57 2.45 2.51 2.57 2.76 2.67 2.57 2.71 2.91
0.19 0.26 0.64 0.97 1.13 1.16 0.96 1.27 1.25 0.89 0.75 0.75 0.82 0.79 0.66 0.61 0.60 0.64 0.75 0.81 1.07 1.37 1.77 2.06 2.21 2.40 2.60 2.72 2.78 2.83 2.92 2.88 2.69 2.74 2.47 2.29 2.13 2.03 2.12 2.25 2.30 2.23 2.25 2.20 2.56 2.41 2.35 2.49 2.59
0.15 0.17 0.26 0.37 0.49 0.87 1.11 1.43 1.32 0.98 0.88 0.80 0.68 0.60 0.55 0.45 0.44 0.50 0.55 0.63 0.88 1.18 1.46 1.64 1.81 2.09 2.33 2.50 2.48 2.44 2.30 2.34 2.42 2.36 2.18 2.10 2.15 2.05 2.13 2.09 2.17 2.20 2.23 2.29 2.43 2.30 2.28 2.52 2.48
0.15 0.20 0.26 0.34 0.56 0.93 1.14 1.42 1.51 1.23 1.09 0.86 0.80 0.83 0.59 0.45 0.43 0.52 0.59 0.68 0.84 0.94 1.17 1.32 1.57 1.90 2.10 2.21 2.19 2.11 2.16 2.14 2.23 2.15 2.10 2.05 2.08 2.16 2.19 2.14 2.26 2.22 2.19 2.21 2.28 2.06 2.09 2.35 2.41
0.19 0.20 0.23 0.28 0.36 0.67 1.11 1.30 1.13 1.06 0.96 0.77 0.76 0.76 0.68 0.63 0.50 0.48 0.61 0.69 0.80 0.94 1.11 1.39 1.64 1.78 1.85 1.89 1.92 2.02 2.03 2.03 2.09 2.04 2.00 2.04 2.16 2.19 2.14 2.07 2.11 2.14 2.11 2.17 2.23 1.99 2.13 2.25 2.29
0.18 0.19 0.21 0.29 0.31 0.36 0.67 1.00 0.81 0.76 0.81 0.75 0.73 0.75 0.75 0.70 0.65 0.65 0.76 0.79 0.84 0.97 1.12 1.42 1.71 1.79 1.82 1.92 2.08 2.25 2.32 2.32 2.26 2.05 1.95 2.02 2.08 2.09 2.15 2.15 2.12 2.04 2.06 2.27 2.33 2.14 2.23 2.32 2.28